sat.trackr.live / text

‹ back to catalog

2026-027E

NORAD 67750 · 2026-027E

PAYLOAD ACTIVE UNKNOWN

§ Identity

Operator
Country
PRC
Launch date
2026-02-12
Launch site
SCSLA
Launch vehicle
Mass (kg)
RCS (m²)

External: N2YO · Heavens-Above · Gunter

§ Orbital elements

Epoch: 2026-09-20T14:56:45.427200Z

Period
94.70 min
Inclination
97.5188°
Eccentricity
0.0007974
Mean motion
15.20599418 rev/d
Perigee alt
498.5 km
Apogee alt
509.5 km
Semi-major
6,882.2 km
B*
2.1864e-4
RAAN
31.5060°
Arg perigee
249.8296°
Mean anomaly
110.2081°
Rev number
3,346

§ Raw data

2026-027E1 67750U 26027E   26263.62274800  .00004725  00000+0  21864-3 0  99912 67750  97.5188  31.5060 0007974 249.8296 110.2081 15.20599418 33460

JSON: /api/v1/satellites/67750 · /tle

For live sub-satellite position, see the globe view (requires WebGL).

§ Visibility from observer

Set your observer location to see the next 7 days of passes ≥ 10°. The values pass through the URL so the page stays shareable.

No JS? Fill the form by hand. The geolocation button needs JavaScript.